Danville, VA

2:53 PM EDT on June 23, 2017 (GMT -0400)
Danville Regional

Weather History for KDAN - May, 2013

Change the Weather History Date:

Saturday, May 18, 2013

  Actual Average Record
Temperature  
Mean Temperature 68 °F 67 °F  
Max Temperature 73 °F 78 °F 93 °F (1974)
Min Temperature 63 °F 56 °F 37 °F (1973)
Degree Days  
Heating Degree Days 0 2  
Month to date heating degree days 87 54  
Since 1 July heating degree days 3756 3797  
Cooling Degree Days 3 4  
Month to date cooling degree days 36 47  
Year to date cooling degree days 84 81  
Growing Degree Days 18 (Base 50)    
Moisture  
Dew Point 62 °F    
Average Humidity 81    
Maximum Humidity 93    
Minimum Humidity 68    
Precipitation  
Precipitation 0.20 in 0.12 in 1.50 in (2003)
Month to date precipitation 3.12 2.12  
Year to date precipitation 18.52 16.12  
Snow  
Snow 0.00 in - - ()
Month to date snowfall 0.0  
Since 1 July snowfall 1.7  
Snow Depth 0.00 in    
Sea Level Pressure  
Sea Level Pressure 30.13 in    
Wind  
Wind Speed 4 mph (ENE)    
Max Wind Speed 10 mph    
Max Gust Speed 16 mph    
Visibility 8 miles    
Events Rain    
T = Trace of Precipitation, MM = Missing Value Source: NWS Daily Summary

Daily Weather History Graph

Daily Weather History Graph

Search for Another Location

Airport or City:

Trip Planner

Search our weather history database for the weather conditions in past years. The results will help you decide how hot, cold, wet, or windy it might be!

Date:

Astronomy

May. 18, 2013 Rise Set
Actual Time 6:07 AM EDT 8:20 PM EDT
Civil Twilight 5:38 AM EDT 8:49 PM EDT
Nautical Twilight 5:03 AM EDT 9:25 PM EDT
Astronomical Twilight 4:24 AM EDT 10:03 PM EDT
Moon 1:32 PM EDT (5/18) 1:47 AM EDT (5/18)
Length of Visible Light 15h 10m
Length of Day
14h 12m
First Quarter, 55% of the Moon is Illuminated
May 18
First Quarter
May 25
Full
May 31
Last Quarter
Jun 8
New
Jun 16
First Quarter

Hourly Weather History & Observations

Time (EDT) Temp. Dew Point Humidity Pressure Visibility Wind Dir Wind Speed Gust Speed Precip Events Conditions
12:53 AM 66.9 °F 62.1 °F 84% 30.09 in 10.0 mi East 6.9 mph - N/A   Partly Cloudy
1:53 AM 66.0 °F 62.1 °F 87% 30.08 in 10.0 mi NNE 3.5 mph - N/A   Clear
2:53 AM 64.9 °F 62.1 °F 90% 30.06 in 7.0 mi NE 3.5 mph - N/A   Clear
3:53 AM 64.0 °F 62.1 °F 93% 30.07 in 7.0 mi Calm Calm - N/A   Clear
4:53 AM 64.0 °F 61.0 °F 90% 30.09 in 7.0 mi ENE 4.6 mph - N/A   Clear
5:19 AM 64.4 °F 62.6 °F 94% 30.12 in 8.0 mi ENE 6.9 mph - N/A   Partly Cloudy
5:34 AM 64.4 °F 62.6 °F 94% 30.12 in 8.0 mi East 4.6 mph - N/A   Mostly Cloudy
5:53 AM 64.0 °F 62.1 °F 93% 30.10 in 7.0 mi ENE 3.5 mph - N/A   Mostly Cloudy
6:10 AM 64.4 °F 60.8 °F 88% 30.13 in 9.0 mi ENE 8.1 mph - N/A   Partly Cloudy
6:53 AM 64.0 °F 59.0 °F 84% 30.11 in 10.0 mi ENE 5.8 mph - N/A   Mostly Cloudy
7:53 AM 64.0 °F 59.0 °F 84% 30.13 in 10.0 mi ENE 5.8 mph - N/A   Overcast
8:25 AM 64.4 °F 57.2 °F 77% 30.18 in 10.0 mi NE 4.6 mph - N/A   Overcast
8:39 AM 64.4 °F 57.2 °F 77% 30.17 in 10.0 mi ENE 6.9 mph - N/A   Overcast
8:53 AM 64.9 °F 59.0 °F 81% 30.14 in 10.0 mi ENE 8.1 mph - N/A   Mostly Cloudy
9:25 AM 64.4 °F 60.8 °F 88% 30.18 in 10.0 mi ENE 6.9 mph - N/A   Mostly Cloudy
9:34 AM 64.4 °F 60.8 °F 88% 30.18 in 10.0 mi ENE 5.8 mph - N/A   Mostly Cloudy
9:53 AM 66.0 °F 60.1 °F 81% 30.15 in 10.0 mi NE 4.6 mph - N/A   Overcast
10:33 AM 66.2 °F 60.8 °F 83% 30.17 in 10.0 mi NE 4.6 mph - N/A   Overcast
10:53 AM 68.0 °F 61.0 °F 78% 30.15 in 10.0 mi NE 4.6 mph - N/A   Mostly Cloudy
11:15 AM 68.0 °F 60.8 °F 78% 30.18 in 10.0 mi NE 6.9 mph - N/A   Overcast
11:53 AM 68.0 °F 62.1 °F 81% 30.15 in 8.0 mi NNE 6.9 mph - 0.00 in   Overcast
12:12 PM 68.0 °F 62.6 °F 83% 30.17 in 8.0 mi NE 6.9 mph - N/A   Overcast
12:53 PM 68.0 °F 62.1 °F 81% 30.16 in 8.0 mi Calm Calm - N/A   Overcast
1:16 PM 68.0 °F 62.6 °F 83% 30.19 in 7.0 mi Calm Calm - 0.00 in   Overcast
1:42 PM 68.0 °F 62.6 °F 83% 30.17 in 7.0 mi Calm Calm - 0.00 in Rain Light Rain
1:53 PM 68.0 °F 63.0 °F 84% 30.14 in 6.0 mi NE 4.6 mph - 0.00 in Rain Light Rain
2:40 PM 69.8 °F 64.4 °F 83% 30.15 in 6.0 mi NE 5.8 mph - 0.00 in   Overcast
3:10 PM 69.8 °F 64.4 °F 83% 30.14 in 7.0 mi East 5.8 mph - N/A   Mostly Cloudy
3:24 PM 71.6 °F 64.4 °F 78% 30.14 in 8.0 mi ENE 6.9 mph - N/A   Scattered Clouds
3:53 PM 73.0 °F 64.0 °F 73% 30.12 in 10.0 mi East 4.6 mph - N/A   Partly Cloudy
4:53 PM 73.0 °F 63.0 °F 71% 30.11 in 10.0 mi Calm Calm - N/A   Partly Cloudy
5:53 PM 73.0 °F 64.0 °F 73% 30.09 in 10.0 mi East 3.5 mph - N/A   Mostly Cloudy
6:53 PM 72.0 °F 64.9 °F 78% 30.10 in 10.0 mi Calm Calm - N/A   Partly Cloudy
7:53 PM 70.0 °F 64.9 °F 84% 30.11 in 7.0 mi ENE 4.6 mph - 0.00 in Rain Light Rain
8:53 PM 69.1 °F 66.0 °F 90% 30.11 in 5.0 mi ENE 6.9 mph - 0.02 in Rain Light Rain
9:07 PM 69.8 °F 66.2 °F 88% 30.14 in 5.0 mi ENE 8.1 mph - 0.00 in Rain Light Rain
9:20 PM 69.8 °F 66.2 °F 88% 30.14 in 5.0 mi ENE 5.8 mph - 0.00 in Rain Light Rain
9:53 PM 68.0 °F 66.0 °F 93% 30.12 in 5.0 mi East 4.6 mph - 0.02 in Rain Light Rain
10:53 PM 64.9 °F 62.1 °F 90% 30.14 in 10.0 mi Variable 5.8 mph - 0.01 in   Overcast
10:59 PM 64.4 °F 62.6 °F 94% 30.16 in 10.0 mi Variable 4.6 mph - N/A   Overcast
11:53 PM 64.0 °F 62.1 °F 93% 30.13 in 7.0 mi Calm Calm - 0.09 in Rain Light Rain